Today is Wednesday,
April 16th, 2014
User not logged in!
  [Run Race Header Image]  Run Race logo

  
Race webcasting is attempted by race directors and their support staff. Please remember that the conditions under which they're working may make it difficult to post timely webcast updates... your interest and patience is appreciated!
Race Information
Race Name:Kettle 100 Endurance Runs - 2010
Location:LaGrange
State:Wisconsin, United States
 
Event Information
Name of Event:Kettle 100 solo
Distance:100.00
Measurement:Miles
Date:Saturday June 5th, 2010
 
Checkpoint:Nordic Center Finish
Distance:100.600 Miles
Gun Start Time:Saturday June 5th, 2010 5:59:50.25 am
Calculate Chip Start Time:< not set >
Y or N... Calculate splits based upon participant chip start time?
Allow Early Chip Start Time:< not set >
Y or N... Allow participants a chip start time prior to gun start?
Pos Race
Number
NameAgeSexTimePace 
1133Darin Schneidewind40M 19:54:48.6 11:52.6
218Brad Bishop24M 20:38:12.7 12:18.5
3110Nolan Ming34M 20:51:37.8 12:26.5
454Andy Emerson41M 21:21:22.0 12:44.2
5134Paul Schoenlaub50M 21:26:32.5 12:47.3
637Norman Decelles25M 22:09:29.4 13:12.9
740Michael DeMeritt49M 22:19:14.2 13:18.7
8156Jason Voccia28M 22:54:27.8 13:39.8
941Drew Deppen27M 23:13:31.4 13:51.1
1010Andrew Barrett43M 23:17:24.0 13:53.4
11107Scott Meyers42M 23:35:02.9 14:04.0
12118Jim Ramacier46M 23:35:54.3 14:04.5
1375Matt Hosking42M 23:39:59.3 14:06.9
1479Dale Humphrey51M 23:44:32.9 14:09.6
1582Bob Jasinski41M 24:05:53.5 14:22.4
16117Norman Plumstead37M 24:11:10.1 14:25.5
1753Jason Elliot36M 25:22:52.6 15:08.3
1858David Files35M 25:25:01.8 15:09.6
19150Eric Tadt22M 25:37:21.1 15:16.9
20153Julie Treder34F 25:40:28.8 15:18.8
2114Patrick Bene46M 25:50:14.4 15:24.6
2276David House28M 25:50:14.5 15:24.6
2352Jennifer Eichelberger39F 25:51:02.6 15:25.1
2446craig duhn34M 25:59:23.5 15:30.1
2589Thomas Keene29M 26:22:47.4 15:44.0
2629Cynthia Carlson40F 26:31:09.0 15:49.0
2795Willie Lambert47M 26:41:32.6 15:55.2
28125Daryl Saari47M 26:42:43.7 15:55.9
2922Rick Bothwell48M 27:17:34.6 16:16.7
30163Paul Wilkerson34M 27:19:45.7 16:18.0
3177Alicia Hudelson25F 27:24:10.5 16:20.6
3249Greg Dyck44M 27:31:59.7 16:25.3
3330Clint Cherepa31M 27:36:22.0 16:27.9
3433Benjamin Clark19M 27:38:34.5 16:29.2
35144Dustin Speer29M 27:40:19.4 16:30.3
36158Deb Vomhof48F 27:41:34.1 16:31.0
37114George Peterka50M 27:46:04.8 16:33.7
388Angela Barbera49F 27:54:01.8 16:38.4
39141Michael Siltman41M 28:13:46.3 16:50.2
40159Rick Wagar47M 28:21:51.5 16:55.0
41106William Mcalpine36M 28:24:29.4 16:56.6
42145Phil Stapert44M 28:36:04.4 17:03.5
43103Aaron mascarella39M 28:40:28.4 17:06.1
4419BrendaU Bland50F 28:55:55.6 17:15.3
4569Dennis Hanna54M 29:07:45.7 17:22.4
4659Mary Flaws43F 29:07:46.1 17:22.4
47149Kazimierz Swistun58M 29:09:13.7 17:23.3
48122Andrea Risi38F 29:23:06.4 17:31.6
4913Matt Bartz35M 29:35:36.6 17:39.0
50105Michael Matteson51M 29:40:37.6 17:42.0
51116Richard Plezia51M 29:44:20.8 17:44.2

Event Information
Name of Event:Kettle 100 solo
Distance:100.00
Measurement:Kilometers
Date:Saturday June 5th, 2010
 

Event Information
Name of Event:Kettle 100 relay
Distance:100.00
Measurement:Miles
Date:Saturday June 5th, 2010
 

Event Information
Name of Event:Kettle 38 solo
Distance:38.00
Measurement:Miles
Date:Saturday June 5th, 2010
 

Unless otherwise indicated, all content, photos and art work published on this website are copyright property 2004-2014 of Run Race and may not be republished without verifiable authorization from webmaster@runrace.net. Click for our: Terms and Conditions.